Location: Cheyres
(46.8153°N, 6.7877°E)
Time: 21:42:24
(UTC+00:00)

PicSat - Pass Details

Date: 10 July 2022
Orbit: 446 x 455 km, 97.4° (Epoch: 13 August)

Event Time Altitude Azimuth Distance (km) Brightness Sun altitude
Exits shadow 22:22:21 30° 232° (SW) 863 ? -18.9°
Maximum altitude 22:23:11 34° 263° (W) 783 ? -19.0°
Drops below altitude 10° 22:26:23 10° 330° (NNW) 1,623 ? -19.2°
Sets 22:28:35 0° 340° (NNW) 2,505 ? -19.3°
